| time (UTC) | temp C | wind direction | speed KPH | gust KPH | rain 1hr cm | rain 24hr cm | rain mn cm | humidity % | barometer mb |
| 20260510105333 | 13 | 206 | 1.6 | 3.2 | 0.00 | 0.00 | 0.00 | 86 | 977.6 |
| 20260510103803 | 14 | 211 | 3.2 | 4.8 | 0.00 | 0.00 | 0.00 | 83 | 977.3 |
| 20260510102305 | 15 | 236 | 4.8 | 4.8 | 0.00 | 0.00 | 0.00 | 81 | 977.0 |
| 20260510100802 | 15 | 248 | 3.2 | 4.8 | 0.00 | 0.00 | 0.00 | 81 | 977.3 |
| 20260510095305 | 15 | 237 | 3.2 | 4.8 | 0.00 | 0.00 | 0.00 | 80 | 977.3 |
| 20260510093732 | 15 | 243 | 3.2 | 4.8 | 0.00 | 0.00 | 0.00 | 80 | 977.1 |
| 20260510092232 | 15 | 243 | 4.8 | 4.8 | 0.00 | 0.00 | 0.00 | 79 | 977.0 |
| 20260510090732 | 16 | 227 | 4.8 | 8.0 | 0.00 | 0.00 | 0.00 | 74 | 977.0 |
| 20260510085232 | 16 | 226 | 4.8 | 4.8 | 0.00 | 0.00 | 0.00 | 73 | 976.6 |
| 20260510083732 | 16 | 233 | 4.8 | 8.0 | 0.00 | 0.00 | 0.00 | 73 | 977.0 |
| 20260510082202 | 15 | 242 | 4.8 | 8.0 | 0.00 | 0.00 | 0.00 | 77 | 977.0 |
| 20260510080702 | 15 | 200 | 1.6 | 4.8 | 0.00 | 0.00 | 0.00 | 79 | 976.6 |
| 20260510075132 | 15 | 204 | 3.2 | 3.2 | 0.00 | 0.00 | 0.00 | 78 | 976.3 |
| 20260510073632 | 15 | 201 | 3.2 | 4.8 | 0.00 | 0.00 | 0.00 | 75 | 976.0 |
| 20260510072132 | 16 | 198 | 3.2 | 3.2 | 0.00 | 0.00 | 0.00 | 73 | 976.0 |
| 20260510070632 | 16 | 207 | 3.2 | 3.2 | 0.00 | 0.00 | 0.00 | 71 | 976.0 |
| 20260510065102 | 16 | 215 | 3.2 | 3.2 | 0.00 | 0.00 | 0.00 | 70 | 976.0 |
| 20260510063602 | 16 | 208 | 1.6 | 3.2 | 0.00 | 0.00 | 0.00 | 68 | 976.0 |
| 20260510062102 | 17 | 212 | 3.2 | 3.2 | 0.00 | 0.00 | 0.00 | 66 | 976.0 |
| 20260510060602 | 17 | 219 | 1.6 | 3.2 | 0.00 | 0.00 | 0.00 | 67 | 976.3 |
| 20260510055102 | 17 | 181 | 1.6 | 1.6 | 0.00 | 0.00 | 0.00 | 67 | 976.3 |
| 20260510053602 | 18 | 194 | 3.2 | 8.0 | 0.00 | 0.00 | 0.00 | 59 | 976.3 |
| 20260510052032 | 18 | 221 | 1.6 | 1.6 | 0.00 | 0.00 | 0.00 | 59 | 976.0 |
| 20260510050502 | 18 | 190 | 1.6 | 3.2 | 0.00 | 0.00 | 0.00 | 58 | 976.3 |
| 20260510045001 | 18 | 221 | 4.8 | 4.8 | 0.00 | 0.00 | 0.00 | 56 | 976.3 |
| 20260510043501 | 18 | 207 | 3.2 | 3.2 | 0.00 | 0.00 | 0.00 | 57 | 976.0 |
| 20260510042001 | 18 | 202 | 0.0 | 1.6 | 0.00 | 0.00 | 0.00 | 55 | 976.0 |
| 20260510040431 | 19 | 95 | 3.2 | 3.2 | 0.00 | 0.00 | 0.00 | 53 | 976.3 |
| 20260510034931 | 20 | 118 | 0.0 | 1.6 | 0.00 | 0.00 | 0.00 | 52 | 976.0 |
| 20260510033431 | 20 | 256 | 1.6 | 3.2 | 0.00 | 0.00 | 0.00 | 50 | 976.0 |
| 20260510031931 | 20 | 310 | 0.0 | 0.0 | 0.00 | 0.00 | 0.00 | 51 | 976.0 |
| 20260510030431 | 20 | 34 | 1.6 | 3.2 | 0.00 | 0.00 | 0.00 | 53 | 976.0 |
| 20260510024901 | 19 | 252 | 0.0 | 1.6 | 0.00 | 0.00 | 0.00 | 52 | 975.6 |
| 20260510023401 | 18 | 73 | 0.0 | 3.2 | 0.00 | 0.00 | 0.00 | 55 | 975.6 |
| 20260510021901 | 18 | 93 | 1.6 | 3.2 | 0.00 | 0.00 | 0.00 | 55 | 975.6 |
| 20260510020401 | 18 | 100 | 1.6 | 1.6 | 0.00 | 0.00 | 0.00 | 55 | 975.3 |
| 20260510014901 | 18 | 85 | 1.6 | 3.2 | 0.00 | 0.00 | 0.00 | 55 | 975.3 |
| 20260510013401 | 19 | 100 | 1.6 | 3.2 | 0.00 | 0.00 | 0.00 | 54 | 974.9 |
| 20260510011833 | 19 | 97 | 3.2 | 3.2 | 0.00 | 0.00 | 0.00 | 53 | 974.9 |
| 20260510010317 | 20 | 115 | 1.6 | 3.2 | 0.00 | 0.00 | 0.00 | 52 | 974.6 |
| 20260509195242 | 24 | 155 | 3.2 | 4.8 | 0.00 | 0.00 | 0.00 | 48 | 974.3 |
| 20260509172810 | 22 | 109 | 0.0 | 3.2 | 0.00 | 0.00 | 0.00 | 54 | 974.3 |
| 20260509171240 | 21 | 162 | 1.6 | 4.8 | 0.00 | 0.00 | 0.00 | 62 | 974.3 |
| 20260509165711 | 20 | 355 | 4.8 | 4.8 | 0.00 | 0.00 | 0.00 | 65 | 974.6 |
| 20260509164140 | 20 | 114 | 1.6 | 3.2 | 0.00 | 0.00 | 0.00 | 65 | 974.3 |
| 20260509162611 | 20 | 220 | 3.2 | 4.8 | 0.00 | 0.00 | 0.00 | 67 | 974.3 |
| 20260509161041 | 20 | 213 | 1.6 | 3.2 | 0.00 | 0.00 | 0.00 | 65 | 974.3 |
| 20260509155510 | 20 | 246 | 1.6 | 8.0 | 0.00 | 0.00 | 0.00 | 66 | 974.3 |
| 20260509153940 | 19 | 216 | 3.2 | 3.2 | 0.00 | 0.00 | 0.00 | 70 | 974.3 |
| 20260509152410 | 18 | 30 | 3.2 | 4.8 | 0.00 | 0.00 | 0.00 | 74 | 974.3 |
| 20260509150840 | 18 | 240 | 4.8 | 4.8 | 0.00 | 0.00 | 0.00 | 75 | 973.9 |
| 20260509145310 | 17 | 280 | 3.2 | 4.8 | 0.00 | 0.00 | 0.00 | 78 | 973.9 |
| 20260509143740 | 16 | 259 | 1.6 | 4.8 | 0.00 | 0.00 | 0.00 | 80 | 973.9 |
| 20260509142210 | 16 | 246 | 0.0 | 8.0 | 0.00 | 0.00 | 0.00 | 83 | 973.9 |
| 20260509140640 | 15 | 251 | 3.2 | 4.8 | 0.00 | 0.00 | 0.00 | 84 | 973.9 |
| 20260509135110 | 15 | 255 | 3.2 | 8.0 | 0.00 | 0.00 | 0.00 | 86 | 973.9 |
| 20260509133540 | 13 | 253 | 3.2 | 8.0 | 0.00 | 0.00 | 0.00 | 88 | 973.6 |
| 20260509132010 | 13 | 208 | 4.8 | 8.0 | 0.00 | 0.00 | 0.00 | 89 | 973.6 |
| 20260509130440 | 12 | 200 | 3.2 | 4.8 | 0.00 | 0.00 | 0.00 | 90 | 973.6 |
| 20260509124910 | 12 | 210 | 4.8 | 8.0 | 0.00 | 0.00 | 0.00 | 90 | 973.6 |
| 20260509123340 | 12 | 227 | 4.8 | 8.0 | 0.00 | 0.00 | 0.00 | 90 | 973.6 |
| 20260509121810 | 12 | 226 | 3.2 | 8.0 | 0.00 | 0.00 | 0.00 | 91 | 973.2 |
| 20260509120240 | 11 | 223 | 3.2 | 4.8 | 0.00 | 0.00 | 0.00 | 91 | 972.9 |
| 20260509114710 | 11 | 233 | 4.8 | 4.8 | 0.00 | 0.00 | 0.00 | 91 | 972.6 |
| 20260509113140 | 11 | 198 | 3.2 | 4.8 | 0.00 | 0.00 | 0.00 | 91 | 972.6 |
| 20260509111610 | 11 | 203 | 3.2 | 4.8 | 0.00 | 0.00 | 0.00 | 92 | 972.6 |
| 20260509110040 | 11 | 256 | 3.2 | 8.0 | 0.00 | 0.00 | 0.00 | 92 | 972.6 |